Vertical_Velocity
-4 -4 -1 -11 -10 1 6 7 -2 8 13 1 -0 -1 -4 -1 0 -3 -0 7 1 -2 -0 0 0 -2 -2 -2 -0 1 6 3 0 -11 0 1 1 -2 -0 7 -8 -2 5 -22
-2 -3 1 1 -0 1 -1 1 -3 -2 6 -0 1 3 -0 -1 6 -2 1 0 -1 0 -3 5 1 -0 5 -1 1 4 4 -2 1 -2 11 7 3 -5 -0 1 4 -6 13 -23
-0 2 2 1 3 3 12 -5 0 -4 0 -2 -4 -1 0 0 1 -1 0 -1 3 5 3 1 1 2 4 -3 2 -5 -0 1 4 -1 -4 1 -1 -1 -1 5 7 -8 -8 -10
2 -0 2 1 1 -1 -3 3 -2 -1 0 3 0 2 -1 1 1 -0 2 2 0 -3 2 2 -1 1 6 5 2 -1 5 1 5 -4 -1 3 2 1 -2 8 -7 17 -19 3
-4 1 -2 2 -1 2 -2 -8 -4 -2 -1 5 -0 1 -0 -3 4 -6 1 3 -2 1 1 -4 -2 1 1 -4 6 1 0 -2 1 -5 -1 2 1 -2 1 -0 -4 0 3 -11
0 2 1 -1 -0 3 -0 -8 -5 5 -1 3 4 -4 -0 -1 -2 1 -1 -5 -1 3 0 -1 3 -0 1 1 2 -0 2 1 3 -13 1 3 7 -12 -2 -3 0 3 4 -26
2 -2 -1 -1 -1 1 -0 -1 2 -1 -1 1 -4 -0 -2 -1 -3 -7 -2 4 -1 12 -6 -5 1 2 0 3 -3 2 1 3 3 -7 4 7 -38 -2 4 8 -3 -2 2 -3
6 3 -1 -1 -0 -3 3 -1 8 -4 0 -4 4 4 -2 3 -1 -1 -4 5 6 -5 -4 0 1 3 5 -5 -3 1 3 3 1 4 1 -14 -12 -12 5 16 -26 -1 1 -4
1 1 3 -1 1 1 -3 -5 -6 1 -7 1 -11 -3 -6 -4 -0 3 1 1 -2 -6 1 1 -0 -2 -3 -3 2 1 6 4 10 6 9 -0 -22 -10 0 4 -14 -4 6 -4
-0 -4 -5 -4 -4 -4 -1 -5 -7 -0 -5 -0 1 -2 -10 1 3 -3 1 -2 5 3 0 2 1 -4 0 3 1 -4 2 5 -2 -1 -1 -14 -11 -5 4 34 -31 -1 1 3
-4 -1 1 -0 -2 -3 11 -2 -6 6 -2 -2 -8 -10 -1 2 2 -2 1 11 7 6 5 4 -5 3 -8 9 -6 -4 4 8 -2 7 10 -10 -2 -5 25 1 -15 5 -0 1
-1 -2 0 -1 -2 -1 -1 -2 -4 -3 -1 10 -5 -2 -5 -2 2 4 2 -3 -1 -6 4 3 3 2 4 -0 -5 -2 9 2 1 18 -11 -7 2 -2 -1 3 0 -9 -1 -9
-0 -0 -2 -1 -0 -1 -8 5 -6 -3 -4 -1 2 -1 -5 -8 -7 -2 9 5 -3 0 -5 -0 -0 6 9 3 -11 8 -7 1 4 23 -18 -6 -4 -6 -3 -4 -5 5 0 -1
1 -1 -1 -1 -2 -2 -3 2 -3 -2 -3 2 5 -1 -3 0 -2 2 -1 -8 12 -2 11 1 1 6 7 -4 -1 13 -4 8 -1 -10 -7 -3 -10 -2 7 -16 -6 -3 -2 1
1 1 -1 1 1 -1 -3 -1 -6 -3 2 5 -1 -3 -9 -2 -0 1 1 2 1 3 8 4 -4 -0 16 -5 10 -1 -1 -10 5 -14 -10 9 -8 -14 -3 3 -5 6 7 13
2 2 -0 -1 -1 -1 4 -6 2 -3 0 -6 1 10 -5 2 1 -1 4 0 1 2 1 -7 -6 -15 20 5 -0 -27 -9 -7 -2 -16 -4 3 -8 -7 1 -5 -5 6 0 4
2 3 5 5 -3 -2 -5 5 -1 -2 2 -4 0 -1 4 -4 3 1 5 4 -8 8 -4 3 3 2 19 6 2 -21 -7 4 10 10 19 -3 4 -9 -2 -3 -3 5 1 3
2 2 1 0 -1 -2 -7 3 -4 2 -7 -2 2 -5 9 -4 -0 1 -4 5 3 5 -5 2 4 1 9 3 -16 -8 -6 -5 -4 -8 -3 -8 -7 6 -7 21 27 -3 2 4
2 1 0 -2 -2 -1 -10 1 5 4 -13 2 3 2 -0 -3 1 1 1 0 4 -4 0 -2 12 -1 -2 -12 -3 -4 -7 0 -7 -12 -9 10 -8 -6 -1 13 1 0 9 -5
-0 -1 -2 -1 -8 3 1 6 3 -2 1 1 1 4 -1 2 1 3 4 0 -2 2 -13 4 8 -12 -14 -5 -6 -4 -5 1 23 5 4 9 4 2 -3 -6 1 3 6 -1
-1 -1 2 5 -1 1 1 2 2 2 4 1 -7 -1 1 5 3 0 -1 -1 -0 3 2 1 -1 -2 -11 6 -2 -9 -2 -3 8 -2 1 3 0 -1 1 2 -2 -0 3 1
8 3 2 -2 0 3 3 -1 1 3 -3 3 1 3 -2 0 0 3 -0 1 4 0 -0 5 -0 -1 -1 -1 -2 4 7 5 -4 -3 2 4 -5 1 3 0 -1 2 -1 -3
6 -0 3 4 2 4 4 -0 1 2 0 -2 -1 2 -2 1 -1 0 2 2 -1 1 3 -2 -1 3 -1 -2 -1 -1 -4 -3 -1 -1 2 7 5 -0 6 -4 -2 2 -0 -1
7 0 4 1 3 -1 -2 0 -0 3 -1 -1 -2 1 -0 -1 2 -0 4 -3 2 2 2 -3 1 1 -0 -3 -2 -1 -3 -4 4 6 3 -4 -2 4 3 0 -1 1 -1 -1
1 1 -1 1 -5 -3 -0 -1 0 -0 4 -3 0 -1 5 1 2 0 1 3 -0 -1 -2 2 4 0 -1 1 1 1 2 -0 -1 1 -0 2 3 2 0 -1 1 0 -1 0
-1 1 3 -4 3 -1 1 -1 -3 -1 1 -2 1 0 2 -1 -1 3 -3 2 -2 0 1 2 1 -0 1 -2 -2 -2 -2 -3 -1 1 3 3 -0 -0 1 -2 -1 -1 0 1
2 -1 -4 -2 1 1 0 1 1 4 -1 -1 1 3 -7 1 2 1 -0 -1 2 1 0 -1 -1 2 -0 1 0 -1 -0 -2 -0 1 1 1 -1 0 1 -1 0 1 1 -1
Height
1402 1408 1413 1417 1425 1432 1437 1440 1442 1447 1450 1458 1457 1454 1452 1454 1453 1462 1460 1454 1450 1451 1453 1454 1455 1459 1462 1477 1475 1471 1474 1472 1470 1465 1463 1468 1469 1468 1470 1476 1472 1468 1467 1459
1405 1409 1412 1417 1424 1432 1436 1436 1444 1449 1448 1448 1450 1455 1458 1458 1456 1458 1459 1456 1456 1456 1458 1462 1462 1462 1474 1477 1476 1474 1475 1476 1479 1469 1465 1464 1468 1462 1460 1462 1466 1470 1473 1458
1404 1409 1413 1417 1423 1427 1434 1441 1445 1451 1450 1450 1446 1455 1459 1463 1461 1460 1460 1459 1461 1463 1461 1463 1462 1464 1474 1478 1478 1484 1484 1479 1478 1475 1463 1476 1487 1476 1465 1463 1469 1465 1460 1452
1404 1409 1412 1417 1422 1428 1435 1439 1440 1439 1444 1448 1450 1451 1453 1457 1464 1462 1461 1466 1463 1463 1464 1463 1465 1466 1472 1477 1481 1485 1484 1485 1485 1479 1477 1475 1472 1470 1463 1459 1458 1460 1455 1451
1406 1410 1414 1419 1423 1430 1434 1436 1440 1440 1439 1441 1449 1452 1455 1457 1462 1463 1463 1461 1461 1465 1466 1464 1464 1464 1468 1468 1477 1478 1484 1484 1489 1485 1482 1481 1476 1464 1455 1457 1454 1453 1451 1446
1409 1412 1415 1419 1424 1431 1433 1437 1437 1439 1442 1444 1449 1450 1454 1457 1459 1465 1461 1460 1458 1462 1465 1470 1472 1473 1474 1473 1474 1474 1479 1483 1482 1470 1469 1470 1473 1454 1451 1448 1447 1446 1447 1443
1411 1414 1418 1422 1426 1430 1435 1438 1437 1439 1438 1438 1440 1443 1446 1448 1455 1460 1464 1459 1458 1470 1472 1477 1477 1477 1477 1477 1476 1479 1479 1481 1481 1474 1472 1475 1447 1442 1440 1438 1434 1431 1426 1425
1413 1415 1418 1422 1426 1430 1434 1435 1439 1440 1437 1437 1445 1445 1447 1452 1460 1460 1462 1463 1465 1471 1476 1480 1481 1474 1475 1470 1467 1469 1473 1474 1478 1477 1461 1452 1440 1436 1440 1435 1430 1423 1425 1425
1415 1418 1421 1424 1427 1429 1432 1435 1438 1442 1443 1443 1446 1447 1450 1452 1456 1462 1464 1468 1472 1476 1475 1480 1473 1462 1458 1456 1453 1456 1461 1465 1469 1467 1465 1458 1432 1435 1433 1429 1423 1418 1419 1418
1415 1418 1422 1425 1428 1431 1435 1436 1437 1443 1445 1447 1447 1447 1450 1452 1453 1459 1465 1471 1474 1476 1473 1470 1463 1458 1455 1455 1460 1459 1453 1455 1460 1461 1461 1445 1431 1432 1431 1432 1424 1421 1423 1413
1418 1421 1424 1427 1430 1433 1437 1438 1439 1444 1445 1447 1447 1450 1452 1454 1455 1456 1460 1465 1466 1468 1465 1461 1456 1454 1452 1450 1449 1449 1448 1448 1447 1453 1454 1450 1433 1429 1428 1424 1428 1423 1423 1420
1420 1423 1425 1428 1431 1434 1437 1439 1440 1441 1444 1446 1447 1450 1451 1453 1454 1454 1456 1456 1456 1459 1459 1454 1450 1448 1446 1445 1443 1442 1445 1444 1441 1437 1431 1428 1427 1428 1429 1427 1424 1425 1426 1423
1420 1423 1426 1429 1431 1433 1436 1440 1440 1442 1443 1444 1445 1445 1447 1448 1450 1454 1455 1453 1456 1457 1458 1457 1455 1448 1445 1442 1439 1438 1436 1436 1435 1439 1432 1429 1427 1426 1427 1425 1423 1420 1421 1420
1421 1424 1427 1429 1432 1435 1437 1440 1440 1443 1444 1444 1441 1442 1444 1445 1446 1448 1451 1453 1453 1455 1456 1457 1455 1452 1449 1445 1443 1439 1436 1434 1433 1429 1425 1428 1425 1425 1425 1425 1421 1419 1416 1417
1420 1424 1427 1429 1432 1434 1436 1438 1439 1442 1447 1443 1441 1440 1439 1440 1442 1444 1446 1449 1451 1451 1453 1451 1450 1450 1451 1446 1445 1429 1437 1435 1434 1419 1429 1427 1423 1425 1424 1422 1420 1414 1411 1413
1418 1422 1426 1429 1431 1435 1437 1437 1439 1439 1443 1445 1439 1434 1432 1433 1436 1439 1441 1443 1445 1447 1448 1447 1444 1446 1448 1440 1426 1425 1431 1431 1429 1421 1425 1423 1421 1420 1418 1417 1413 1409 1410 1410
1416 1421 1425 1428 1431 1434 1438 1438 1438 1439 1442 1444 1439 1430 1427 1428 1431 1433 1435 1437 1438 1440 1441 1440 1439 1437 1438 1432 1416 1422 1421 1418 1417 1417 1418 1415 1414 1412 1411 1409 1406 1407 1407 1410
1417 1421 1425 1428 1430 1433 1434 1436 1435 1438 1441 1442 1436 1426 1424 1426 1427 1431 1430 1431 1432 1431 1432 1432 1433 1433 1431 1418 1407 1411 1412 1413 1412 1411 1410 1406 1408 1408 1405 1401 1400 1403 1406 1408
1418 1421 1424 1428 1429 1430 1428 1431 1433 1433 1440 1434 1428 1421 1419 1423 1424 1425 1426 1426 1424 1425 1423 1423 1428 1420 1408 1396 1399 1401 1402 1402 1401 1401 1399 1398 1399 1400 1400 1398 1399 1401 1403 1405
1418 1423 1426 1425 1423 1424 1426 1428 1430 1431 1431 1431 1423 1417 1417 1421 1417 1416 1421 1419 1413 1411 1407 1411 1411 1398 1395 1392 1392 1393 1394 1394 1391 1389 1389 1390 1392 1394 1396 1397 1397 1399 1401 1403
1420 1421 1421 1421 1422 1424 1425 1425 1425 1424 1422 1418 1413 1414 1412 1414 1414 1410 1414 1408 1406 1401 1396 1401 1391 1380 1378 1378 1378 1382 1386 1387 1386 1388 1386 1387 1389 1391 1392 1394 1397 1399 1400 1401
1417 1418 1419 1421 1422 1422 1422 1418 1416 1414 1408 1406 1407 1409 1411 1412 1412 1411 1406 1402 1400 1394 1397 1395 1377 1369 1373 1375 1375 1375 1378 1380 1382 1384 1384 1386 1388 1389 1390 1392 1395 1397 1397 1399
1416 1417 1418 1418 1418 1418 1415 1411 1408 1404 1404 1406 1407 1409 1411 1412 1412 1411 1409 1401 1394 1393 1393 1381 1370 1373 1376 1377 1377 1377 1378 1378 1378 1380 1381 1384 1386 1388 1389 1390 1392 1394 1396 1398
1413 1414 1414 1413 1410 1408 1401 1399 1399 1402 1404 1406 1408 1407 1409 1410 1411 1408 1406 1396 1397 1390 1381 1371 1369 1375 1378 1379 1379 1378 1378 1377 1378 1379 1380 1381 1384 1386 1386 1388 1391 1393 1395 1398
1412 1413 1408 1403 1402 1403 1403 1403 1403 1404 1405 1407 1407 1406 1404 1404 1406 1406 1400 1398 1390 1378 1370 1371 1375 1378 1379 1380 1379 1378 1379 1379 1380 1381 1381 1382 1383 1384 1386 1388 1392 1394 1396 1398
1411 1410 1405 1402 1402 1401 1402 1402 1402 1402 1403 1405 1405 1400 1398 1395 1392 1394 1392 1381 1375 1370 1374 1376 1377 1378 1379 1380 1381 1381 1381 1382 1382 1382 1382 1382 1383 1385 1387 1390 1393 1395 1397 1399
1405 1401 1400 1401 1400 1398 1398 1398 1397 1398 1401 1400 1396 1393 1387 1387 1383 1380 1375 1375 1374 1377 1378 1379 1378 1378 1379 1380 1381 1382 1382 1382 1382 1382 1383 1383 1385 1387 1388 1391 1394 1396 1397 1399